Regional Weather Roundup
Issued by NWS

Home | Current Version | Previous Version | Graphics & Text | Print | Product List | Glossary On
Versions: 1 2 3 4 5 6 7 8 9 10 11 12 13 14 15 16 17 18 19 20 21 22 23 24 25 26 27 28 29 30 31 32 33 34 35 36 37 38 39 40 41 42 43 44 45 46 47 48 49 50
000
ASUS43 KOAX 241302
RWRNE

WEATHER ROUNDUP FOR NEBRASKA
NATIONAL WEATHER SERVICE OMAHA NE
800 AM CDT SAT SEP 24 2016

NOTES: SATELLITE DATA IS BEING USED TO AUGMENT CLOUD COVER ABOVE
       12000 FEET.
       "FAIR" INDICATES FEW OR NO CLOUDS BELOW 12,000 FEET WITH NO
       SIGNIFICANT WEATHER AND/OR OBSTRUCTIONS TO VISIBILITY.

  * THESE STATIONS DO NOT REPORT WEATHER SUCH AS RAIN...SNOW OR FOG.

NEZ001>004-019>022-054>056-241400-
NEBRASKA PANHANDLE

CITY           SKY/WX    TMP DP  RH WIND       PRES   REMARKS
SCOTTSBLUFF    CLEAR     43  43 100 NW5       29.93S
ALLIANCE       CLEAR     41  39  93 W8        29.91R
CHADRON        CLEAR     46  41  82 SW7       29.88R
KIMBALL        CLEAR     39  37  93 SW3       29.96R
SIDNEY         CLEAR     42  38  85 NW3       29.95S
$$

NEZ057>060-069>072-079>082-241400-
SOUTHWEST NEBRASKA

CITY           SKY/WX    TMP DP  RH WIND       PRES   REMARKS
NORTH PLATTE   PTCLDY    52  47  83 W8        29.91R
IMPERIAL       CLEAR     48  42  80 W6        29.94R
LEXINGTON      CLEAR     57  51  79 W9        29.91R
MCCOOK         PTCLDY    55  47  74 NW7       29.93R
OGALLALA       CLEAR     48  44  86 SW6       29.93R
$$

NEZ005>010-023>029-035>040-094-241400-
NORTH CENTRAL NEBRASKA

CITY           SKY/WX    TMP DP  RH WIND       PRES   REMARKS
VALENTINE      CLOUDY    57  46  66 W12       29.86S
AINSWORTH      CLOUDY    59  51  74 W10       29.87R
BROKEN BOW     PTCLDY    66  63  90 SW10      29.86R
O`NEILL        CLOUDY    70  65  84 SE17      29.85R
ORD            CLOUDY    70  65  84 S12       29.83F
THEDFORD       CLOUDY    55  48  77 W9        29.91R
$$

NEZ041-046>049-061>064-073>077-083>087-241400-
SOUTH CENTRAL NEBRASKA

CITY           SKY/WX    TMP DP  RH WIND       PRES   REMARKS
GRAND ISLAND   CLOUDY    68  66  93 S13       29.88R
AURORA         CLOUDY    69  68  96 S12       29.90R
HASTINGS       CLOUDY    69  66  90 S10       29.91R
HEBRON         CLOUDY    72  66  82 S10       29.93R
HOLDREGE       PTCLDY    65  60  81 SW8       29.90R
KEARNEY *      CLOUDY    68  64  88 S10       29.88R
YORK           TSTM      68  66  94 SE9G18    29.91R
$$

NEZ011>018-030>034-042>045-241400-
NORTHEAST NEBRASKA

CITY           SKY/WX    TMP DP  RH WIND       PRES   REMARKS
NORFOLK        RAIN      69  65  86 S15       29.90R FOG
ALBION         CLOUDY    69  66  91 SE10      29.89S
BLAIR          PTCLDY    72  65  79 SE10      29.96S
FREMONT        PTCLDY    71  64  78 SE9       29.94S
TEKAMAH        CLEAR     70  64  81 SE12      29.94S
WAYNE          MOCLDY    70  65  84 SE13      29.92R
$$

NEZ050>053-065>068-078-088>093-241400-
SOUTHEAST NEBRASKA

CITY           SKY/WX    TMP DP  RH WIND       PRES   REMARKS
LINCOLN        MOCLDY    73  66  78 SE13      29.93S
OMAHA EPPLEY   MOCLDY    73  64  73 SE9       29.96S
BEATRICE       PTCLDY    73  67  81 SE9       29.95R
FALLS CITY     CLOUDY    71  67  87 SE9       29.98R
NEBRASKA CITY  PTCLDY    69  60  72 S7        29.98R
PLATTSMOUTH    CLOUDY    71  62  73 SE12      29.97S
$$

NEZ044-045-051>053-067-241400-
OMAHA AREA

CITY           SKY/WX    TMP DP  RH WIND       PRES   REMARKS
OMAHA EPPLEY   MOCLDY    73  64  73 SE9       29.96S
BLAIR          PTCLDY    72  65  79 SE10      29.96S
FREMONT        PTCLDY    71  64  78 SE9       29.94S
MILLARD        PTCLDY    71  65  81 SE6       29.95S
OFFUTT AFB     PTCLDY    71  66  84 SE9       29.95S
PLATTSMOUTH    CLOUDY    71  62  73 SE12      29.97S
WAHOO          FAIR      69  64  85 SE8       29.94S
$$




USA.gov is the U.S. government's official web portal to all federal, state and local government web resources and services.